| time (UTC) | temp C | wind direction | speed KPH | gust KPH | rain 1hr cm | rain 24hr cm | rain mn cm | humidity % | barometer mb |
| 20260505130104 | 16 | 242 | 12.9 | 33.8 | 0.00 | 0.25 | 0.25 | 75 | 1002.7 |
| 20260505124604 | 16 | 228 | 12.9 | 25.7 | 0.00 | 0.25 | 0.25 | 74 | 1002.8 |
| 20260505123112 | 16 | 223 | 11.3 | 19.3 | 0.00 | 0.25 | 0.25 | 74 | 1002.7 |
| 20260505121555 | 16 | 241 | 9.7 | 25.7 | 0.00 | 0.25 | 0.25 | 73 | 1002.4 |
| 20260505120101 | 16 | 237 | 12.9 | 24.1 | 0.00 | 0.25 | 0.25 | 72 | 1002.5 |
| 20260505114555 | 16 | 204 | 11.3 | 30.6 | 0.00 | 0.25 | 0.25 | 72 | 1002.2 |
| 20260505113054 | 16 | 210 | 6.4 | 17.7 | 0.00 | 0.25 | 0.25 | 72 | 1002.0 |
| 20260505111552 | 17 | 216 | 12.9 | 29.0 | 0.00 | 0.25 | 0.25 | 71 | 1001.8 |
| 20260505101548 | 16 | 224 | 11.3 | 24.1 | 0.00 | 0.25 | 0.25 | 74 | 1000.8 |
| 20260505100048 | 16 | 207 | 11.3 | 25.7 | 0.00 | 0.25 | 0.25 | 76 | 1000.7 |
| 20260505094549 | 15 | 220 | 9.7 | 22.5 | 0.00 | 0.25 | 0.25 | 78 | 1000.7 |
| 20260505093046 | 15 | 245 | 9.7 | 19.3 | 0.00 | 0.25 | 0.25 | 81 | 1000.6 |
| 20260505091601 | 14 | 185 | 6.4 | 12.9 | 0.00 | 0.25 | 0.25 | 85 | 1000.5 |
| 20260505090055 | 13 | 190 | 4.8 | 12.9 | 0.00 | 0.25 | 0.25 | 88 | 1000.5 |
| 20260505084601 | 12 | 233 | 3.2 | 6.4 | 0.00 | 0.25 | 0.25 | 92 | 1000.5 |
| 20260505083059 | 12 | 153 | 1.6 | 6.4 | 0.00 | 0.25 | 0.25 | 92 | 1000.6 |
| 20260505081553 | 11 | 204 | 1.6 | 4.8 | 0.00 | 0.25 | 0.25 | 93 | 1000.9 |
| 20260505080047 | 11 | 165 | 1.6 | 8.0 | 0.00 | 0.25 | 0.25 | 93 | 1001.1 |
| 20260505074536 | 11 | 195 | 3.2 | 8.0 | 0.00 | 0.25 | 0.25 | 93 | 1001.1 |
| 20260505073048 | 12 | 137 | 3.2 | 11.3 | 0.00 | 0.25 | 0.25 | 93 | 1001.1 |
| 20260505071542 | 12 | 188 | 4.8 | 14.5 | 0.05 | 0.25 | 0.25 | 93 | 1001.3 |
| 20260505070039 | 12 | 176 | 4.8 | 11.3 | 0.08 | 0.25 | 0.25 | 92 | 1001.5 |
| 20260505064524 | 12 | 169 | 9.7 | 17.7 | 0.23 | 0.25 | 0.25 | 91 | 1001.5 |
| 20260505063027 | 13 | 213 | 6.4 | 17.7 | 0.25 | 0.25 | 0.25 | 90 | 1001.7 |
| 20260505061527 | 13 | 270 | 6.4 | 14.5 | 0.20 | 0.20 | 0.20 | 91 | 1003.5 |
| 20260505060038 | 13 | 246 | 12.9 | 30.6 | 0.18 | 0.18 | 0.18 | 90 | 1002.6 |
| 20260505054515 | 13 | 200 | 8.0 | 22.5 | 0.03 | 0.03 | 0.03 | 88 | 1002.4 |
| 20260505053009 | 15 | 178 | 17.7 | 30.6 | 0.00 | 0.00 | 0.00 | 81 | 1002.5 |
| 20260505051506 | 15 | 189 | 14.5 | 29.0 | 0.00 | 0.00 | 0.00 | 76 | 1002.6 |
| 20260505041600 | 17 | 235 | 12.9 | 33.8 | 0.00 | 0.00 | 0.00 | 68 | 1002.4 |
| 20260505040049 | 17 | 220 | 16.1 | 40.2 | 0.00 | 0.00 | 0.00 | 70 | 1002.2 |
| 20260505034547 | 16 | 200 | 9.7 | 17.7 | 0.00 | 0.00 | 0.00 | 73 | 1002.1 |
| 20260505033045 | 15 | 179 | 6.4 | 16.1 | 0.00 | 0.00 | 0.00 | 73 | 1001.9 |
| 20260505031543 | 15 | 164 | 4.8 | 11.3 | 0.00 | 0.00 | 0.00 | 72 | 1002.1 |
| 20260505030056 | 15 | 179 | 6.4 | 17.7 | 0.00 | 0.00 | 0.00 | 71 | 1002.2 |
| 20260505024547 | 15 | 216 | 6.4 | 14.5 | 0.00 | 0.00 | 0.00 | 72 | 1002.6 |
| 20260505023041 | 15 | 169 | 6.4 | 14.5 | 0.00 | 0.00 | 0.00 | 73 | 1002.7 |
| 20260505021540 | 14 | 190 | 3.2 | 20.9 | 0.00 | 0.00 | 0.00 | 68 | 1002.6 |
| 20260505020041 | 13 | 211 | 6.4 | 16.1 | 0.00 | 0.00 | 0.00 | 66 | 1002.9 |
| 20260505014559 | 15 | 161 | 4.8 | 9.7 | 0.00 | 0.00 | 0.00 | 61 | 1002.5 |
| 20260505013047 | 16 | 154 | 3.2 | 8.0 | 0.00 | 0.00 | 0.00 | 55 | 1002.3 |
| 20260505011541 | 17 | 173 | 1.6 | 8.0 | 0.00 | 0.00 | 0.00 | 51 | 1002.4 |
| 20260505010046 | 17 | 178 | 3.2 | 6.4 | 0.00 | 0.00 | 0.00 | 49 | 1002.4 |
| 20260505004546 | 18 | 206 | 3.2 | 9.7 | 0.00 | 0.00 | 0.00 | 46 | 1002.2 |
| 20260505003051 | 18 | 226 | 4.8 | 9.7 | 0.00 | 0.00 | 0.00 | 44 | 1002.3 |
| 20260505001533 | 19 | 216 | 4.8 | 12.9 | 0.00 | 0.00 | 0.00 | 41 | 1002.3 |
| 20260505000035 | 20 | 231 | 6.4 | 14.5 | 0.00 | 0.00 | 0.00 | 40 | 1002.4 |
| 20260504234531 | 20 | 257 | 9.7 | 19.3 | 0.00 | 0.00 | 0.00 | 39 | 1002.5 |
| 20260504233034 | 21 | 232 | 11.3 | 20.9 | 0.00 | 0.00 | 0.00 | 38 | 1002.5 |
| 20260504231528 | 21 | 237 | 8.0 | 22.5 | 0.00 | 0.00 | 0.00 | 38 | 1002.4 |
| 20260504230028 | 21 | 264 | 8.0 | 22.5 | 0.00 | 0.00 | 0.00 | 40 | 1002.6 |
| 20260504224527 | 21 | 238 | 11.3 | 20.9 | 0.00 | 0.00 | 0.00 | 43 | 1002.8 |
| 20260504223032 | 21 | 207 | 11.3 | 25.7 | 0.00 | 0.00 | 0.00 | 43 | 1002.8 |
| 20260504221526 | 21 | 231 | 17.7 | 32.2 | 0.00 | 0.00 | 0.00 | 42 | 1002.7 |
| 20260504220028 | 21 | 257 | 12.9 | 27.4 | 0.00 | 0.00 | 0.00 | 41 | 1002.7 |
| 20260504214526 | 21 | 217 | 14.5 | 30.6 | 0.00 | 0.00 | 0.00 | 36 | 1002.7 |
| 20260504213027 | 21 | 206 | 12.9 | 27.4 | 0.00 | 0.00 | 0.00 | 39 | 1002.6 |
| 20260504211533 | 21 | 237 | 12.9 | 33.8 | 0.00 | 0.00 | 0.00 | 40 | 1002.6 |
| 20260504210020 | 21 | 206 | 19.3 | 32.2 | 0.00 | 0.00 | 0.00 | 41 | 1002.8 |
| 20260504204519 | 21 | 203 | 12.9 | 32.2 | 0.00 | 0.00 | 0.00 | 43 | 1002.7 |
| 20260504203017 | 21 | 200 | 12.9 | 27.4 | 0.00 | 0.00 | 0.00 | 44 | 1003.0 |
| 20260504201517 | 21 | 263 | 8.0 | 24.1 | 0.00 | 0.00 | 0.00 | 46 | 1003.2 |
| 20260504200012 | 21 | 204 | 9.7 | 20.9 | 0.00 | 0.00 | 0.00 | 46 | 1003.3 |
| 20260504194511 | 20 | 194 | 12.9 | 27.4 | 0.00 | 0.00 | 0.00 | 46 | 1003.5 |
| 20260504193008 | 20 | 224 | 20.9 | 32.2 | 0.00 | 0.00 | 0.00 | 45 | 1003.8 |
| 20260504191504 | 20 | 255 | 12.9 | 27.4 | 0.00 | 0.00 | 0.00 | 49 | 1004.1 |
| 20260504190000 | 20 | 252 | 14.5 | 30.6 | 0.00 | 0.00 | 0.00 | 47 | 1004.4 |
| 20260504184558 | 20 | 226 | 17.7 | 33.8 | 0.00 | 0.00 | 0.00 | 49 | 1004.3 |
| 20260504183055 | 19 | 219 | 12.9 | 30.6 | 0.00 | 0.00 | 0.00 | 50 | 1004.6 |
| 20260504181600 | 19 | 235 | 19.3 | 35.4 | 0.00 | 0.00 | 0.00 | 50 | 1004.8 |
| 20260504180052 | 18 | 225 | 16.1 | 38.6 | 0.00 | 0.00 | 0.00 | 53 | 1005.0 |
| 20260504174547 | 18 | 213 | 14.5 | 37.0 | 0.00 | 0.00 | 0.00 | 53 | 1005.4 |
| 20260504173050 | 17 | 220 | 19.3 | 38.6 | 0.00 | 0.00 | 0.00 | 53 | 1005.6 |
| 20260504171541 | 17 | 240 | 17.7 | 35.4 | 0.00 | 0.00 | 0.00 | 55 | 1005.6 |